owner,sensor,date,latitude,longitude,vertical_datum,mass_concentration_of_oxygen_in_sea_water,qcFlag 
SCCF RECON,ioos:station:SCCF:11:1,2019-06-01T04:00:00Z,26.4679,-82.0631,1.87,6.1,11111222 
SCCF RECON,ioos:station:SCCF:11:1,2019-06-01T05:00:00Z,26.4679,-82.0631,1.91,5.55,11111222 
SCCF RECON,ioos:station:SCCF:11:1,2019-06-01T06:00:00Z,26.4679,-82.0631,1.88,5.75,11111222 
SCCF RECON,ioos:station:SCCF:11:1,2019-06-01T07:00:00Z,26.4679,-82.0631,1.79,5.65,11111222 
SCCF RECON,ioos:station:SCCF:11:1,2019-06-01T08:00:00Z,26.4679,-82.0631,1.691,5.18,11111222 
SCCF RECON,ioos:station:SCCF:11:1,2019-06-01T09:00:00Z,26.4679,-82.0631,1.62,4.95,11111222 
SCCF RECON,ioos:station:SCCF:11:1,2019-06-01T10:00:00Z,26.4679,-82.0631,1.571,4.67,11111222 
SCCF RECON,ioos:station:SCCF:11:1,2019-06-01T11:00:00Z,26.4679,-82.0631,1.59,3.85,11111222 
SCCF RECON,ioos:station:SCCF:11:1,2019-06-01T12:00:00Z,26.4679,-82.0631,1.69,3.95,11111222 
SCCF RECON,ioos:station:SCCF:11:1,2019-06-01T13:00:00Z,26.4679,-82.0631,1.817,4.49,11111222 
SCCF RECON,ioos:station:SCCF:11:1,2019-06-01T14:00:00Z,26.4679,-82.0631,1.928,5.18,11111222 
SCCF RECON,ioos:station:SCCF:11:1,2019-06-01T15:00:00Z,26.4679,-82.0631,2.02,5.33,11111222 
SCCF RECON,ioos:station:SCCF:11:1,2019-06-01T16:00:00Z,26.4679,-82.0631,2.056,5.68,11111222 
SCCF RECON,ioos:station:SCCF:11:1,2019-06-01T17:00:00Z,26.4679,-82.0631,2.009,5.91,11111222 
SCCF RECON,ioos:station:SCCF:11:1,2019-06-01T18:00:00Z,26.4679,-82.0631,1.901,6.45,11111222 
SCCF RECON,ioos:station:SCCF:11:1,2019-06-01T19:00:00Z,26.4679,-82.0631,1.741,6.84,11111222 
SCCF RECON,ioos:station:SCCF:11:1,2019-06-01T20:00:00Z,26.4679,-82.0631,1.595,6.73,11111222 
SCCF RECON,ioos:station:SCCF:11:1,2019-06-01T21:00:00Z,26.4679,-82.0631,1.46,6.81,11111222 
SCCF RECON,ioos:station:SCCF:11:1,2019-06-01T22:00:00Z,26.4679,-82.0631,1.327,6.84,11111222 
SCCF RECON,ioos:station:SCCF:11:1,2019-06-01T23:00:00Z,26.4679,-82.0631,1.234,6.84,11111222 
SCCF RECON,ioos:station:SCCF:11:1,2019-06-02T04:00:00Z,26.4679,-82.0631,1.775,6.01,11111222 
SCCF RECON,ioos:station:SCCF:11:1,2019-06-02T05:00:00Z,26.4679,-82.0631,1.85,5.39,11111222 
SCCF RECON,ioos:station:SCCF:11:1,2019-06-02T06:00:00Z,26.4679,-82.0631,1.87,5.24,11111222 
SCCF RECON,ioos:station:SCCF:11:1,2019-06-02T07:00:00Z,26.4679,-82.0631,1.81,5.72,11111222 
SCCF RECON,ioos:station:SCCF:11:1,2019-06-02T08:00:00Z,26.4679,-82.0631,1.702,5.57,11111222 
SCCF RECON,ioos:station:SCCF:11:1,2019-06-02T09:00:00Z,26.4679,-82.0631,1.64,5.11,11111222 
SCCF RECON,ioos:station:SCCF:11:1,2019-06-02T10:00:00Z,26.4679,-82.0631,1.609,5.01,11111222 
SCCF RECON,ioos:station:SCCF:11:1,2019-06-02T11:00:00Z,26.4679,-82.0631,1.62,4.77,11111222 
SCCF RECON,ioos:station:SCCF:11:1,2019-06-02T12:00:00Z,26.4679,-82.0631,1.676,4.09,11111222 
SCCF RECON,ioos:station:SCCF:11:1,2019-06-02T13:00:00Z,26.4679,-82.0631,1.8,4.16,11111222 
SCCF RECON,ioos:station:SCCF:11:1,2019-06-02T14:00:00Z,26.4679,-82.0631,1.922,5.02,11111222 
SCCF RECON,ioos:station:SCCF:11:1,2019-06-02T15:00:00Z,26.4679,-82.0631,2.011,5.18,11111222 
SCCF RECON,ioos:station:SCCF:11:1,2019-06-02T16:00:00Z,26.4679,-82.0631,2.078,5.25,11111222 
SCCF RECON,ioos:station:SCCF:11:1,2019-06-02T17:00:00Z,26.4679,-82.0631,2.09,5.62,11111222 
SCCF RECON,ioos:station:SCCF:11:1,2019-06-02T18:00:00Z,26.4679,-82.0631,2.029,6.27,11111222 
SCCF RECON,ioos:station:SCCF:11:1,2019-06-02T19:00:00Z,26.4679,-82.0631,1.88,7.11,11111222 
SCCF RECON,ioos:station:SCCF:11:1,2019-06-02T20:00:00Z,26.4679,-82.0631,1.705,7.23,11111222 
SCCF RECON,ioos:station:SCCF:11:1,2019-06-02T21:00:00Z,26.4679,-82.0631,1.541,7.14,11111222 
SCCF RECON,ioos:station:SCCF:11:1,2019-06-02T22:00:00Z,26.4679,-82.0631,1.389,7.12,11111222 
SCCF RECON,ioos:station:SCCF:11:1,2019-06-02T23:00:00Z,26.4679,-82.0631,1.269,7.06,11111222 
SCCF RECON,ioos:station:SCCF:11:1,2019-06-03T04:00:00Z,26.4679,-82.0631,1.706,6.13,11111222 
SCCF RECON,ioos:station:SCCF:11:1,2019-06-03T05:00:00Z,26.4679,-82.0631,1.811,5.62,11111222 
SCCF RECON,ioos:station:SCCF:11:1,2019-06-03T06:00:00Z,26.4679,-82.0631,1.891,5.31,11111222 
SCCF RECON,ioos:station:SCCF:11:1,2019-06-03T07:00:00Z,26.4679,-82.0631,1.89,5.5,11111222 
SCCF RECON,ioos:station:SCCF:11:1,2019-06-03T08:00:00Z,26.4679,-82.0631,1.82,5.53,11111222 
SCCF RECON,ioos:station:SCCF:11:1,2019-06-03T09:00:00Z,26.4679,-82.0631,1.747,5.31,11111222 
SCCF RECON,ioos:station:SCCF:11:1,2019-06-03T10:00:00Z,26.4679,-82.0631,1.701,4.86,11111222 
SCCF RECON,ioos:station:SCCF:11:1,2019-06-03T11:00:00Z,26.4679,-82.0631,1.676,4.77,11111222 
SCCF RECON,ioos:station:SCCF:11:1,2019-06-03T12:00:00Z,26.4679,-82.0631,1.681,4.64,11111222 
SCCF RECON,ioos:station:SCCF:11:1,2019-06-03T13:00:00Z,26.4679,-82.0631,1.761,4.55,11111222 
SCCF RECON,ioos:station:SCCF:11:1,2019-06-03T14:00:00Z,26.4679,-82.0631,1.903,4.29,11111222 
SCCF RECON,ioos:station:SCCF:11:1,2019-06-03T15:00:00Z,26.4679,-82.0631,2.021,5.28,11111222 
SCCF RECON,ioos:station:SCCF:11:1,2019-06-03T16:00:00Z,26.4679,-82.0631,2.102,5.34,11111222 
SCCF RECON,ioos:station:SCCF:11:1,2019-06-03T17:00:00Z,26.4679,-82.0631,2.15,5.55,11111222 
SCCF RECON,ioos:station:SCCF:11:1,2019-06-03T18:00:00Z,26.4679,-82.0631,2.101,7.25,11111222 
SCCF RECON,ioos:station:SCCF:11:1,2019-06-03T19:00:00Z,26.4679,-82.0631,1.981,7.15,11111222 
SCCF RECON,ioos:station:SCCF:11:1,2019-06-03T20:00:00Z,26.4679,-82.0631,1.822,7.57,11111222 
SCCF RECON,ioos:station:SCCF:11:1,2019-06-03T21:00:00Z,26.4679,-82.0631,1.662,7.49,11111222 
SCCF RECON,ioos:station:SCCF:11:1,2019-06-03T22:00:00Z,26.4679,-82.0631,1.499,7.43,11111222 
SCCF RECON,ioos:station:SCCF:11:1,2019-06-03T23:00:00Z,26.4679,-82.0631,1.343,7.19,11111222 
SCCF RECON,ioos:station:SCCF:11:1,2019-06-04T04:00:00Z,26.4679,-82.0631,1.61,6.03,11111222 
SCCF RECON,ioos:station:SCCF:11:1,2019-06-04T05:00:00Z,26.4679,-82.0631,1.75,5.26,11111222 
SCCF RECON,ioos:station:SCCF:11:1,2019-06-04T06:00:00Z,26.4679,-82.0631,1.855,5.23,11111222 
SCCF RECON,ioos:station:SCCF:11:1,2019-06-04T07:00:00Z,26.4679,-82.0631,1.911,5.13,11111222 
SCCF RECON,ioos:station:SCCF:11:1,2019-06-04T08:00:00Z,26.4679,-82.0631,1.899,5.05,11111222 
SCCF RECON,ioos:station:SCCF:11:1,2019-06-04T09:00:00Z,26.4679,-82.0631,1.82,5.16,11111222 
SCCF RECON,ioos:station:SCCF:11:1,2019-06-04T10:00:00Z,26.4679,-82.0631,1.748,4.96,11111222 
SCCF RECON,ioos:station:SCCF:11:1,2019-06-04T11:00:00Z,26.4679,-82.0631,1.72,4.45,11111222 
SCCF RECON,ioos:station:SCCF:11:1,2019-06-04T12:00:00Z,26.4679,-82.0631,1.708,4.44,11111222 
SCCF RECON,ioos:station:SCCF:11:1,2019-06-04T13:00:00Z,26.4679,-82.0631,1.736,3.72,11111222 
SCCF RECON,ioos:station:SCCF:11:1,2019-06-04T14:00:00Z,26.4679,-82.0631,1.826,5.35,11111222 
SCCF RECON,ioos:station:SCCF:11:1,2019-06-04T15:00:00Z,26.4679,-82.0631,1.955,4.58,11111222 
SCCF RECON,ioos:station:SCCF:11:1,2019-06-04T16:00:00Z,26.4679,-82.0631,2.071,5.27,11111222 
SCCF RECON,ioos:station:SCCF:11:1,2019-06-04T17:00:00Z,26.4679,-82.0631,2.131,5.75,11111222 
SCCF RECON,ioos:station:SCCF:11:1,2019-06-04T18:00:00Z,26.4679,-82.0631,2.15,6.55,11111222 
SCCF RECON,ioos:station:SCCF:11:1,2019-06-04T19:00:00Z,26.4679,-82.0631,2.08,7.47,11111222 
SCCF RECON,ioos:station:SCCF:11:1,2019-06-04T20:00:00Z,26.4679,-82.0631,1.931,7.34,11111222 
SCCF RECON,ioos:station:SCCF:11:1,2019-06-04T21:00:00Z,26.4679,-82.0631,1.758,7.38,11111222 
SCCF RECON,ioos:station:SCCF:11:1,2019-06-04T22:00:00Z,26.4679,-82.0631,1.604,7.2,11111222 
SCCF RECON,ioos:station:SCCF:11:1,2019-06-04T23:00:00Z,26.4679,-82.0631,1.463,6.95,11111222 
SCCF RECON,ioos:station:SCCF:11:1,2019-06-05T04:00:00Z,26.4679,-82.0631,1.42,5.54,11111222 
SCCF RECON,ioos:station:SCCF:11:1,2019-06-05T05:00:00Z,26.4679,-82.0631,1.58,5.3,11111222 
SCCF RECON,ioos:station:SCCF:11:1,2019-06-05T06:00:00Z,26.4679,-82.0631,1.72,4.86,11111222 
SCCF RECON,ioos:station:SCCF:11:1,2019-06-05T07:00:00Z,26.4679,-82.0631,1.83,4.75,11111222 
SCCF RECON,ioos:station:SCCF:11:1,2019-06-05T08:00:00Z,26.4679,-82.0631,1.877,4.77,11111222 
SCCF RECON,ioos:station:SCCF:11:1,2019-06-05T09:00:00Z,26.4679,-82.0631,1.86,4.77,11111222 
SCCF RECON,ioos:station:SCCF:11:1,2019-06-05T10:00:00Z,26.4679,-82.0631,1.81,4.87,11111222 
SCCF RECON,ioos:station:SCCF:11:1,2019-06-05T11:00:00Z,26.4679,-82.0631,1.74,4.36,11111222 
SCCF RECON,ioos:station:SCCF:11:1,2019-06-05T12:00:00Z,26.4679,-82.0631,1.709,4.18,11111222 
SCCF RECON,ioos:station:SCCF:11:1,2019-06-05T13:00:00Z,26.4679,-82.0631,1.71,3.79,11111222 
SCCF RECON,ioos:station:SCCF:11:1,2019-06-05T14:00:00Z,26.4679,-82.0631,1.78,3.71,11111222 
SCCF RECON,ioos:station:SCCF:11:1,2019-06-05T15:00:00Z,26.4679,-82.0631,1.887,4.76,11111222 
SCCF RECON,ioos:station:SCCF:11:1,2019-06-05T16:00:00Z,26.4679,-82.0631,2.015,5.27,11111222 
SCCF RECON,ioos:station:SCCF:11:1,2019-06-05T17:00:00Z,26.4679,-82.0631,2.101,5.12,11111222 
SCCF RECON,ioos:station:SCCF:11:1,2019-06-05T18:00:00Z,26.4679,-82.0631,2.128,5.42,11111222 
SCCF RECON,ioos:station:SCCF:11:1,2019-06-05T19:00:00Z,26.4679,-82.0631,2.104,5.29,11111222 
SCCF RECON,ioos:station:SCCF:11:1,2019-06-05T20:00:00Z,26.4679,-82.0631,2.031,6.95,11111222 
SCCF RECON,ioos:station:SCCF:11:1,2019-06-05T21:00:00Z,26.4679,-82.0631,1.884,7.22,11111222 
SCCF RECON,ioos:station:SCCF:11:1,2019-06-05T22:00:00Z,26.4679,-82.0631,1.723,6.96,11111222 
SCCF RECON,ioos:station:SCCF:11:1,2019-06-05T23:00:00Z,26.4679,-82.0631,1.58,6.7,11111222 
SCCF RECON,ioos:station:SCCF:11:1,2019-06-06T04:00:00Z,26.4679,-82.0631,1.28,4.49,11111222 
SCCF RECON,ioos:station:SCCF:11:1,2019-06-06T05:00:00Z,26.4679,-82.0631,1.443,5.15,11111222 
SCCF RECON,ioos:station:SCCF:11:1,2019-06-06T06:00:00Z,26.4679,-82.0631,1.591,4.83,11111222 
SCCF RECON,ioos:station:SCCF:11:1,2019-06-06T07:00:00Z,26.4679,-82.0631,1.719,4.45,11111222 
SCCF RECON,ioos:station:SCCF:11:1,2019-06-06T08:00:00Z,26.4679,-82.0631,1.799,4.0,11111222 
SCCF RECON,ioos:station:SCCF:11:1,2019-06-06T09:00:00Z,26.4679,-82.0631,1.82,4.36,11111222 
SCCF RECON,ioos:station:SCCF:11:1,2019-06-06T10:00:00Z,26.4679,-82.0631,1.81,4.41,11111222 
SCCF RECON,ioos:station:SCCF:11:1,2019-06-06T11:00:00Z,26.4679,-82.0631,1.776,4.25,11111222 
SCCF RECON,ioos:station:SCCF:11:1,2019-06-06T12:00:00Z,26.4679,-82.0631,1.728,4.34,11111222 
SCCF RECON,ioos:station:SCCF:11:1,2019-06-06T13:00:00Z,26.4679,-82.0631,1.672,4.11,11111222 
SCCF RECON,ioos:station:SCCF:11:1,2019-06-06T14:00:00Z,26.4679,-82.0631,1.7,4.05,11111222 
SCCF RECON,ioos:station:SCCF:11:1,2019-06-06T15:00:00Z,26.4679,-82.0631,1.79,4.33,11111222 
SCCF RECON,ioos:station:SCCF:11:1,2019-06-06T16:00:00Z,26.4679,-82.0631,1.889,5.15,11111222 
SCCF RECON,ioos:station:SCCF:11:1,2019-06-06T17:00:00Z,26.4679,-82.0631,1.993,5.07,11111222 
SCCF RECON,ioos:station:SCCF:11:1,2019-06-06T18:00:00Z,26.4679,-82.0631,2.066,5.06,11111222 
SCCF RECON,ioos:station:SCCF:11:1,2019-06-06T19:00:00Z,26.4679,-82.0631,2.094,5.69,11111222 
SCCF RECON,ioos:station:SCCF:11:1,2019-06-06T20:00:00Z,26.4679,-82.0631,2.083,5.5,11111222 
SCCF RECON,ioos:station:SCCF:11:1,2019-06-06T21:00:00Z,26.4679,-82.0631,2.01,6.86,11111222 
SCCF RECON,ioos:station:SCCF:11:1,2019-06-06T22:00:00Z,26.4679,-82.0631,1.862,6.75,11111222 
SCCF RECON,ioos:station:SCCF:11:1,2019-06-06T23:00:00Z,26.4679,-82.0631,1.702,6.3,11111222 
SCCF RECON,ioos:station:SCCF:11:1,2019-06-07T04:00:00Z,26.4679,-82.0631,1.21,4.32,11111222 
SCCF RECON,ioos:station:SCCF:11:1,2019-06-07T05:00:00Z,26.4679,-82.0631,1.33,3.88,11111222 
SCCF RECON,ioos:station:SCCF:11:1,2019-06-07T06:00:00Z,26.4679,-82.0631,1.48,4.2,11111222 
SCCF RECON,ioos:station:SCCF:11:1,2019-06-07T07:00:00Z,26.4679,-82.0631,1.629,4.31,11111222 
SCCF RECON,ioos:station:SCCF:11:1,2019-06-07T08:00:00Z,26.4679,-82.0631,1.759,3.97,11111222 
SCCF RECON,ioos:station:SCCF:11:1,2019-06-07T09:00:00Z,26.4679,-82.0631,1.84,4.1,11111222 
SCCF RECON,ioos:station:SCCF:11:1,2019-06-07T10:00:00Z,26.4679,-82.0631,1.861,3.96,11111222 
SCCF RECON,ioos:station:SCCF:11:1,2019-06-07T11:00:00Z,26.4679,-82.0631,1.821,4.23,11111222 
SCCF RECON,ioos:station:SCCF:11:1,2019-06-07T12:00:00Z,26.4679,-82.0631,1.76,3.58,11111222 
SCCF RECON,ioos:station:SCCF:11:1,2019-06-07T13:00:00Z,26.4679,-82.0631,1.71,3.5,11111222 
SCCF RECON,ioos:station:SCCF:11:1,2019-06-07T14:00:00Z,26.4679,-82.0631,1.7,3.26,11111222 
SCCF RECON,ioos:station:SCCF:11:1,2019-06-07T15:00:00Z,26.4679,-82.0631,1.73,3.39,11111222 
SCCF RECON,ioos:station:SCCF:11:1,2019-06-07T16:00:00Z,26.4679,-82.0631,1.828,4.05,11111222 
SCCF RECON,ioos:station:SCCF:11:1,2019-06-07T17:00:00Z,26.4679,-82.0631,1.91,4.87,11111222 
SCCF RECON,ioos:station:SCCF:11:1,2019-06-07T18:00:00Z,26.4679,-82.0631,1.991,4.91,11111222 
SCCF RECON,ioos:station:SCCF:11:1,2019-06-07T19:00:00Z,26.4679,-82.0631,2.029,5.49,11111222 
SCCF RECON,ioos:station:SCCF:11:1,2019-06-07T20:00:00Z,26.4679,-82.0631,2.03,5.18,11111222 
SCCF RECON,ioos:station:SCCF:11:1,2019-06-07T21:00:00Z,26.4679,-82.0631,2.019,5.35,11111222 
SCCF RECON,ioos:station:SCCF:11:1,2019-06-07T22:00:00Z,26.4679,-82.0631,1.97,5.9,11111222 
SCCF RECON,ioos:station:SCCF:11:1,2019-06-07T23:00:00Z,26.4679,-82.0631,1.83,6.2,11111222 
SCCF RECON,ioos:station:SCCF:11:1,2019-06-08T04:00:00Z,26.4679,-82.0631,1.21,4.02,11111222 
SCCF RECON,ioos:station:SCCF:11:1,2019-06-08T05:00:00Z,26.4679,-82.0631,1.263,4.01,11111222 
SCCF RECON,ioos:station:SCCF:11:1,2019-06-08T06:00:00Z,26.4679,-82.0631,1.416,3.51,11111222 
SCCF RECON,ioos:station:SCCF:11:1,2019-06-08T07:00:00Z,26.4679,-82.0631,1.54,3.51,11111222 
SCCF RECON,ioos:station:SCCF:11:1,2019-06-08T08:00:00Z,26.4679,-82.0631,1.639,3.31,11111222 
SCCF RECON,ioos:station:SCCF:11:1,2019-06-08T09:00:00Z,26.4679,-82.0631,1.73,3.12,11111222 
SCCF RECON,ioos:station:SCCF:11:1,2019-06-08T10:00:00Z,26.4679,-82.0631,1.839,3.15,11111222 
SCCF RECON,ioos:station:SCCF:11:1,2019-06-08T11:00:00Z,26.4679,-82.0631,1.88,2.77,11111222 
SCCF RECON,ioos:station:SCCF:11:1,2019-06-08T12:00:00Z,26.4679,-82.0631,1.841,3.85,11111222 
SCCF RECON,ioos:station:SCCF:11:1,2019-06-08T13:00:00Z,26.4679,-82.0631,1.794,3.3,11111222 
SCCF RECON,ioos:station:SCCF:11:1,2019-06-08T14:00:00Z,26.4679,-82.0631,1.76,3.39,11111222 
SCCF RECON,ioos:station:SCCF:11:1,2019-06-08T15:00:00Z,26.4679,-82.0631,1.725,3.61,11111222 
SCCF RECON,ioos:station:SCCF:11:1,2019-06-08T16:00:00Z,26.4679,-82.0631,1.705,3.83,11111222 
SCCF RECON,ioos:station:SCCF:11:1,2019-06-08T17:00:00Z,26.4679,-82.0631,1.75,3.76,11111222 
SCCF RECON,ioos:station:SCCF:11:1,2019-06-08T18:00:00Z,26.4679,-82.0631,1.839,5.57,11111222 
SCCF RECON,ioos:station:SCCF:11:1,2019-06-08T19:00:00Z,26.4679,-82.0631,1.93,5.45,11111222 
SCCF RECON,ioos:station:SCCF:11:1,2019-06-09T04:00:00Z,26.4679,-82.0631,1.358,4.17,11111222 
SCCF RECON,ioos:station:SCCF:11:1,2019-06-09T05:00:00Z,26.4679,-82.0631,1.306,4.05,11111222 
SCCF RECON,ioos:station:SCCF:11:1,2019-06-09T06:00:00Z,26.4679,-82.0631,1.33,3.85,11111222 
SCCF RECON,ioos:station:SCCF:11:1,2019-06-09T07:00:00Z,26.4679,-82.0631,1.471,3.47,11111222 
SCCF RECON,ioos:station:SCCF:11:1,2019-06-09T08:00:00Z,26.4679,-82.0631,1.62,3.47,11111222 
SCCF RECON,ioos:station:SCCF:11:1,2019-06-09T09:00:00Z,26.4679,-82.0631,1.738,3.38,11111222 
SCCF RECON,ioos:station:SCCF:11:1,2019-06-09T10:00:00Z,26.4679,-82.0631,1.843,2.97,11111222 
SCCF RECON,ioos:station:SCCF:11:1,2019-06-09T11:00:00Z,26.4679,-82.0631,1.89,3.99,11111222 
SCCF RECON,ioos:station:SCCF:11:1,2019-06-09T12:00:00Z,26.4679,-82.0631,1.906,3.64,11111222 
SCCF RECON,ioos:station:SCCF:11:1,2019-06-09T13:00:00Z,26.4679,-82.0631,1.891,3.87,11111222 
SCCF RECON,ioos:station:SCCF:11:1,2019-06-09T14:00:00Z,26.4679,-82.0631,1.814,3.87,11111222 
SCCF RECON,ioos:station:SCCF:11:1,2019-06-09T15:00:00Z,26.4679,-82.0631,1.76,3.89,11111222 
SCCF RECON,ioos:station:SCCF:11:1,2019-06-09T16:00:00Z,26.4679,-82.0631,1.728,3.89,11111222 
SCCF RECON,ioos:station:SCCF:11:1,2019-06-09T17:00:00Z,26.4679,-82.0631,1.73,4.24,11111222 
SCCF RECON,ioos:station:SCCF:11:1,2019-06-09T18:00:00Z,26.4679,-82.0631,1.773,5.07,11111222 
SCCF RECON,ioos:station:SCCF:11:1,2019-06-09T19:00:00Z,26.4679,-82.0631,1.843,5.79,11111222 
SCCF RECON,ioos:station:SCCF:11:1,2019-06-09T20:00:00Z,26.4679,-82.0631,1.891,6.71,11111222 
SCCF RECON,ioos:station:SCCF:11:1,2019-06-09T21:00:00Z,26.4679,-82.0631,1.949,6.43,11111222 
SCCF RECON,ioos:station:SCCF:11:1,2019-06-09T22:00:00Z,26.4679,-82.0631,1.956,5.79,11111222 
SCCF RECON,ioos:station:SCCF:11:1,2019-06-09T23:00:00Z,26.4679,-82.0631,1.96,4.52,11111222 
SCCF RECON,ioos:station:SCCF:11:1,2019-06-10T04:00:00Z,26.4679,-82.0631,1.481,4.81,11111222 
SCCF RECON,ioos:station:SCCF:11:1,2019-06-10T05:00:00Z,26.4679,-82.0631,1.408,4.4,11111222 
SCCF RECON,ioos:station:SCCF:11:1,2019-06-10T06:00:00Z,26.4679,-82.0631,1.397,3.77,11111222 
SCCF RECON,ioos:station:SCCF:11:1,2019-06-10T07:00:00Z,26.4679,-82.0631,1.451,4.03,11111222 
SCCF RECON,ioos:station:SCCF:11:1,2019-06-10T08:00:00Z,26.4679,-82.0631,1.43,4.07,11111222 
SCCF RECON,ioos:station:SCCF:11:1,2019-06-10T09:00:00Z,26.4679,-82.0631,1.522,4.02,11111222 
SCCF RECON,ioos:station:SCCF:11:1,2019-06-10T10:00:00Z,26.4679,-82.0631,1.7,3.87,11111222 
SCCF RECON,ioos:station:SCCF:11:1,2019-06-10T11:00:00Z,26.4679,-82.0631,1.79,3.68,11111222 
SCCF RECON,ioos:station:SCCF:11:1,2019-06-10T12:00:00Z,26.4679,-82.0631,1.841,3.73,11111222 
SCCF RECON,ioos:station:SCCF:11:1,2019-06-10T13:00:00Z,26.4679,-82.0631,1.871,3.79,11111222 
SCCF RECON,ioos:station:SCCF:11:1,2019-06-10T14:00:00Z,26.4679,-82.0631,1.83,3.98,11111222 
SCCF RECON,ioos:station:SCCF:11:1,2019-06-10T15:00:00Z,26.4679,-82.0631,1.75,3.7,11111222 
SCCF RECON,ioos:station:SCCF:11:1,2019-06-10T16:00:00Z,26.4679,-82.0631,1.682,4.01,11111222 
SCCF RECON,ioos:station:SCCF:11:1,2019-06-10T17:00:00Z,26.4679,-82.0631,1.56,4.29,11111222 
SCCF RECON,ioos:station:SCCF:11:1,2019-06-10T18:00:00Z,26.4679,-82.0631,1.51,4.57,11111222 
SCCF RECON,ioos:station:SCCF:11:1,2019-06-10T19:00:00Z,26.4679,-82.0631,1.5,4.56,11111222 
SCCF RECON,ioos:station:SCCF:11:1,2019-06-10T20:00:00Z,26.4679,-82.0631,1.58,6.31,11111222 
SCCF RECON,ioos:station:SCCF:11:1,2019-06-10T21:00:00Z,26.4679,-82.0631,1.692,5.85,11111222 
SCCF RECON,ioos:station:SCCF:11:1,2019-06-10T22:00:00Z,26.4679,-82.0631,1.77,5.62,11111222 
SCCF RECON,ioos:station:SCCF:11:1,2019-06-10T23:00:00Z,26.4679,-82.0631,1.811,5.52,11111222 
SCCF RECON,ioos:station:SCCF:11:1,2019-06-11T04:00:00Z,26.4679,-82.0631,1.571,5.33,11111222 
SCCF RECON,ioos:station:SCCF:11:1,2019-06-11T05:00:00Z,26.4679,-82.0631,1.47,5.15,11111222 
SCCF RECON,ioos:station:SCCF:11:1,2019-06-11T06:00:00Z,26.4679,-82.0631,1.38,4.95,11111222 
SCCF RECON,ioos:station:SCCF:11:1,2019-06-11T07:00:00Z,26.4679,-82.0631,1.352,4.63,11111222 
SCCF RECON,ioos:station:SCCF:11:1,2019-06-11T08:00:00Z,26.4679,-82.0631,1.43,4.26,11111222 
SCCF RECON,ioos:station:SCCF:11:1,2019-06-11T09:00:00Z,26.4679,-82.0631,1.55,3.92,11111222 
SCCF RECON,ioos:station:SCCF:11:1,2019-06-11T10:00:00Z,26.4679,-82.0631,1.68,3.82,11111222 
SCCF RECON,ioos:station:SCCF:11:1,2019-06-11T11:00:00Z,26.4679,-82.0631,1.771,3.6,11111222 
SCCF RECON,ioos:station:SCCF:11:1,2019-06-11T12:00:00Z,26.4679,-82.0631,1.849,3.71,11111222 
SCCF RECON,ioos:station:SCCF:11:1,2019-06-11T13:00:00Z,26.4679,-82.0631,1.912,3.86,11111222 
SCCF RECON,ioos:station:SCCF:11:1,2019-06-11T14:00:00Z,26.4679,-82.0631,1.931,3.81,11111222 
SCCF RECON,ioos:station:SCCF:11:1,2019-06-11T15:00:00Z,26.4679,-82.0631,1.86,4.16,11111222 
SCCF RECON,ioos:station:SCCF:11:1,2019-06-11T16:00:00Z,26.4679,-82.0631,1.73,4.38,11111222 
SCCF RECON,ioos:station:SCCF:11:1,2019-06-11T17:00:00Z,26.4679,-82.0631,1.62,4.67,11111222 
SCCF RECON,ioos:station:SCCF:11:1,2019-06-11T18:00:00Z,26.4679,-82.0631,1.538,5.01,11111222 
SCCF RECON,ioos:station:SCCF:11:1,2019-06-11T21:00:00Z,26.4679,-82.0631,1.5,6.97,11111222 
SCCF RECON,ioos:station:SCCF:11:1,2019-06-11T22:00:00Z,26.4679,-82.0631,1.61,6.12,11111222 
SCCF RECON,ioos:station:SCCF:11:1,2019-06-11T23:00:00Z,26.4679,-82.0631,1.688,5.96,11111222 
SCCF RECON,ioos:station:SCCF:11:1,2019-06-12T04:00:00Z,26.4679,-82.0631,1.769,5.3,11111222 
SCCF RECON,ioos:station:SCCF:11:1,2019-06-12T05:00:00Z,26.4679,-82.0631,1.657,5.06,11111222 
SCCF RECON,ioos:station:SCCF:11:1,2019-06-12T06:00:00Z,26.4679,-82.0631,1.55,4.75,11111222 
SCCF RECON,ioos:station:SCCF:11:1,2019-06-12T07:00:00Z,26.4679,-82.0631,1.452,4.72,11111222 
SCCF RECON,ioos:station:SCCF:11:1,2019-06-12T08:00:00Z,26.4679,-82.0631,1.429,4.62,11111222 
SCCF RECON,ioos:station:SCCF:11:1,2019-06-12T09:00:00Z,26.4679,-82.0631,1.522,4.05,11111222 
SCCF RECON,ioos:station:SCCF:11:1,2019-06-12T10:00:00Z,26.4679,-82.0631,1.68,3.89,11111222 
SCCF RECON,ioos:station:SCCF:11:1,2019-06-12T11:00:00Z,26.4679,-82.0631,1.792,3.43,11111222 
SCCF RECON,ioos:station:SCCF:11:1,2019-06-12T12:00:00Z,26.4679,-82.0631,1.89,3.56,11111222 
SCCF RECON,ioos:station:SCCF:11:1,2019-06-12T13:00:00Z,26.4679,-82.0631,1.941,3.61,11111222 
SCCF RECON,ioos:station:SCCF:11:1,2019-06-12T14:00:00Z,26.4679,-82.0631,1.95,3.62,11111222 
SCCF RECON,ioos:station:SCCF:11:1,2019-06-12T15:00:00Z,26.4679,-82.0631,1.92,3.85,11111222 
SCCF RECON,ioos:station:SCCF:11:1,2019-06-12T16:00:00Z,26.4679,-82.0631,1.856,4.12,11111222 
SCCF RECON,ioos:station:SCCF:11:1,2019-06-12T17:00:00Z,26.4679,-82.0631,1.73,4.59,11111222 
SCCF RECON,ioos:station:SCCF:11:1,2019-06-12T18:00:00Z,26.4679,-82.0631,1.602,4.78,11111222 
SCCF RECON,ioos:station:SCCF:11:1,2019-06-12T19:00:00Z,26.4679,-82.0631,1.512,5.15,11111222 
SCCF RECON,ioos:station:SCCF:11:1,2019-06-12T20:00:00Z,26.4679,-82.0631,1.419,5.55,11111222 
SCCF RECON,ioos:station:SCCF:11:1,2019-06-12T21:00:00Z,26.4679,-82.0631,1.36,5.84,11111222 
SCCF RECON,ioos:station:SCCF:11:1,2019-06-12T22:00:00Z,26.4679,-82.0631,1.37,5.97,11111222 
SCCF RECON,ioos:station:SCCF:11:1,2019-06-12T23:00:00Z,26.4679,-82.0631,1.468,7.06,11111222 
SCCF RECON,ioos:station:SCCF:11:1,2019-06-13T04:00:00Z,26.4679,-82.0631,1.828,4.99,11111222 
SCCF RECON,ioos:station:SCCF:11:1,2019-06-13T05:00:00Z,26.4679,-82.0631,1.721,4.85,11111222 
SCCF RECON,ioos:station:SCCF:11:1,2019-06-13T06:00:00Z,26.4679,-82.0631,1.627,4.52,11111222 
SCCF RECON,ioos:station:SCCF:11:1,2019-06-13T07:00:00Z,26.4679,-82.0631,1.569,4.35,11111222 
SCCF RECON,ioos:station:SCCF:11:1,2019-06-13T08:00:00Z,26.4679,-82.0631,1.535,4.22,11111222 
SCCF RECON,ioos:station:SCCF:11:1,2019-06-13T09:00:00Z,26.4679,-82.0631,1.52,4.09,11111222 
SCCF RECON,ioos:station:SCCF:11:1,2019-06-13T10:00:00Z,26.4679,-82.0631,1.58,3.78,11111222 
SCCF RECON,ioos:station:SCCF:11:1,2019-06-13T11:00:00Z,26.4679,-82.0631,1.701,3.53,11111222 
SCCF RECON,ioos:station:SCCF:11:1,2019-06-13T12:00:00Z,26.4679,-82.0631,1.81,3.49,11111222 
SCCF RECON,ioos:station:SCCF:11:1,2019-06-13T13:00:00Z,26.4679,-82.0631,1.92,3.5,11111222 
SCCF RECON,ioos:station:SCCF:11:1,2019-06-13T14:00:00Z,26.4679,-82.0631,2.01,3.84,11111222 
SCCF RECON,ioos:station:SCCF:11:1,2019-06-13T15:00:00Z,26.4679,-82.0631,2.054,3.85,11111222 
SCCF RECON,ioos:station:SCCF:11:1,2019-06-13T16:00:00Z,26.4679,-82.0631,1.96,4.27,11111222 
SCCF RECON,ioos:station:SCCF:11:1,2019-06-13T17:00:00Z,26.4679,-82.0631,1.792,4.75,11111222 
SCCF RECON,ioos:station:SCCF:11:1,2019-06-13T18:00:00Z,26.4679,-82.0631,1.651,4.68,11111222 
SCCF RECON,ioos:station:SCCF:11:1,2019-06-13T19:00:00Z,26.4679,-82.0631,1.527,5.09,11111222 
SCCF RECON,ioos:station:SCCF:11:1,2019-06-13T20:00:00Z,26.4679,-82.0631,1.39,5.13,11111222 
SCCF RECON,ioos:station:SCCF:11:1,2019-06-13T21:00:00Z,26.4679,-82.0631,1.293,5.33,11111222 
SCCF RECON,ioos:station:SCCF:11:1,2019-06-13T22:00:00Z,26.4679,-82.0631,1.27,5.25,11111222 
SCCF RECON,ioos:station:SCCF:11:1,2019-06-13T23:00:00Z,26.4679,-82.0631,1.381,5.27,11111222 
SCCF RECON,ioos:station:SCCF:11:1,2019-06-14T04:00:00Z,26.4679,-82.0631,1.709,4.53,11111222 
SCCF RECON,ioos:station:SCCF:11:1,2019-06-14T05:00:00Z,26.4679,-82.0631,1.77,4.18,11111222 
SCCF RECON,ioos:station:SCCF:11:1,2019-06-14T06:00:00Z,26.4679,-82.0631,1.73,4.37,11111222 
SCCF RECON,ioos:station:SCCF:11:1,2019-06-14T07:00:00Z,26.4679,-82.0631,1.64,4.22,11111222 